Flag for Canada Weather past 2 weeks in Resolute Bay, Nunavut, Canada

Now
19 °F

Sunny.


Feels Like: 5 °F
Forecast: 11 / 25 °F
Wind: 16 mph from North

Location: Resolute

Current Time: May 27, 2015 at 9:32:26 PM

Latest Report: May 27, 2015 at 9:00 PM


Visibility: 15 mi

Pressure: 30.20 "Hg

Humidity: 79%

Dew point: 14 °F

Location of Resolute BayLocation

Historic Weather in Resolute Bay — Graph

°F

Resolute Bay temperature yesterday

Maximum temperature yesterday: 25 °F (at 6:00 PM)
Minimum temperature yesterday: 12 °F (at 5:00 AM)
Average temperature yesterday: 19 °F

Past Weeks' High & Low Weather Summary

 TemperatureHumidityPressure
High30 °F (May 20, 7:00 PM)100% (May 20, 6:00 PM)30.26 "Hg (May 20, 6:00 PM)
Low0 °F (May 16, 12:00 AM)68% (May 26, 8:00 AM)29.51 "Hg (May 23, 8:00 AM)
Average13 °F83%29.95 "Hg
* Reported May 12 8:00 PM — May 27 8:00 PM, Resolute Bay, Weather by CustomWeather, © 2015

Note: Actual official high and low records may vary slightly from our data, if they occured in-between our weather recording intervals... More about our weather records

Advertising

Resolute Bay weather history for previous 24 hours

 ConditionsComfort  
Time TempWeatherWind HumidityBarometerVisibility
8:00 PM
Wed, May 27
21 °FSunny.12 mph74%30.19 "Hg15 mi
7:00 PM21 °FSunny.6 mph80%30.18 "Hg15 mi
6:00 PM21 °FSunny.8 mph80%30.18 "Hg15 mi
5:00 PM19 °FSunny.7 mph86%30.17 "Hg15 mi
4:00 PM19 °FPassing clouds.7 mph79%30.16 "Hg15 mi
3:53 PM19 °FScattered clouds.7 mph79%30.16 "Hg15 mi
3:00 PM19 °FPartly sunny.9 mph79%30.16 "Hg15 mi
2:00 PM19 °FOvercast.12 mph79%30.16 "Hg12 mi
1:00 PM19 °FOvercast.15 mph79%30.16 "Hg12 mi
12:00 PM19 °FOvercast.17 mph79%30.16 "Hg12 mi
11:00 AM18 °FOvercast.14 mph86%30.17 "Hg15 mi
10:00 AM16 °FPassing clouds.17 mph86%30.18 "Hg15 mi
9:00 AM16 °FSunny.10 mph79%30.17 "Hg15 mi
8:00 AM16 °FPassing clouds.16 mph79%30.19 "Hg15 mi
7:00 AM14 °FSunny.17 mph79%30.18 "Hg15 mi
6:00 AM14 °FSunny.21 mph79%30.18 "Hg15 mi
5:00 AM14 °FSunny.7 mph79%30.18 "Hg15 mi
4:00 AM14 °FPassing clouds.10 mph92%30.19 "Hg15 mi
3:00 AM12 °FPassing clouds.7 mph92%30.19 "Hg15 mi
2:00 AM16 °FPassing clouds.10 mph86%30.19 "Hg15 mi
1:00 AM18 °FSunny.20 mph79%30.19 "Hg15 mi
12:00 AM18 °FPassing clouds.21 mph79%30.19 "Hg15 mi
11:00 PM
Tue, May 26
19 °FPassing clouds.20 mph79%30.19 "Hg15 mi
10:00 PM21 °FPassing clouds.21 mph80%30.19 "Hg15 mi
9:00 PM21 °FPassing clouds.15 mph80%30.19 "Hg15 mi
Weather by CustomWeather, © 2015

See weather overviewHow to use our weather pages